Location: Unspecified
(48.5670°N, 0.0000°E)
Time: 04:23:38
(UTC+00:00)

Altair - Pass Details

Date: 25 August 2019
Orbit: 1501 x 1683 km, 47.2° (Epoch: 21 September)

Event Time Altitude Azimuth Distance (km) Brightness Sun altitude
Exits shadow 23:44:41 12° 107° (ESE) 3,714 9.3 -30.7°
Drops below altitude 10° 23:45:59 10° 99° (E) 3,840 9.4 -30.7°
Sets 23:51:23 0° 75° (ENE) 4,789 10.2 -30.8°
